Welcome to the New NWS' Forecast!
Most changes are behind the scenes, but click here for differences you might notice.
Latest weather observations around

Harrison, Boone County Airport (KHRO)

Using English Units (Switch to International System of Units)
Date/ Time (CDT) Wind (mph) Vis. (mi) Weather Sky Cond. Temp (°F) Rel. Humidity Wind Chill (°F) Heat Index (°F) Pressure Precip. (in)
Air Dwpt 6 hour Altimeter (inHg) Sea level (inHg) 1 hr 3 hr 6 hr
Max Min
Sep 19 05:59 SE 3 3 Fog/Mist CLR 62 62     100%     29.97        
Sep 19 05:53 Calm 1.25 Fog/Mist CLR 62 62     100%     29.97 29.93      
Sep 19 05:46 Calm 1 Fog/Mist CLR 63 63     100%     29.97        
Sep 19 05:35 Calm 2 Fog/Mist CLR 65 65     100%     29.96        
Sep 19 05:05 NNW 5 3 Fog/Mist CLR 64 64     100%     29.95        
Sep 19 04:53 Calm 2 Fog/Mist CLR 65 65     100%     29.95 29.91      
Sep 19 04:45 Calm 1.75 Fog/Mist CLR 65 65     100%     29.95        
Sep 19 03:48 Calm 3 Fog/Mist CLR 64 64     100%     29.94        
Sep 19 03:40 Calm 1 Fog/Mist CLR 65 65     100%     29.95        
Sep 19 03:35 Calm 0.5 Fog CLR 66 66     100%     29.94        
Sep 19 03:28 Calm 0.75 Fog/Mist CLR 66 66     100%     29.94        
Sep 19 03:20 Calm 3 Fog/Mist CLR 67 67     100%     29.94        
Sep 19 03:08 Calm 1.25 Fog/Mist CLR 66 66     100%     29.94        
Sep 19 02:53 Calm 3 Fog/Mist CLR 66 66     100%     29.94 29.9      
Sep 19 02:26 Calm 3 Fog/Mist CLR 66 66     100%     29.95        
Sep 19 02:17 Calm 1.75 Fog/Mist CLR 65 65     100%     29.95        
Sep 19 02:06 Calm 7 Clear CLR 65 65     100%     29.95        
Sep 19 01:53 Calm 2 Fog/Mist CLR 65 65     100%     29.96 29.91      
Sep 18 23:53 S 5 6 Fog/Mist CLR 67 67     100%     29.98 29.95      
Sep 18 22:53 S 3 7 Clear CLR 68 68     100%     30 29.97      
Sep 18 20:53 Calm 10 Clear CLR 70 68     93%     30 29.97      
Sep 18 19:53 Calm 10 Clear CLR 71 68     90%   72 29.99 29.96      
Sep 18 18:53 N 3 10 Clear   77 69     77%   78 29.98 29.94      
Sep 18 17:53 Calm 10 Mostly Cloudy FEW047 SCT060 BKN080 78 70     76%   79 29.98 29.94      
Sep 18 16:53 ENE 7 10 Mostly Cloudy FEW027 SCT035 BKN120 80 69     69%   83 29.97 29.93      
Sep 18 15:45 NE 10 10 Clear CLR 84 72     67%   90 29.97        
Sep 18 15:34 6 10 Partly Cloudy FEW048 SCT065 84 71     65%   89 29.98        
Sep 18 15:13 NNW 5 10 Thunderstorms SCT035 BKN047 OVC090 82 68     63%   85 29.99        
Sep 18 14:53   10 Cloudy BKN035 BKN043 OVC065 81 68     65%   84 30 29.96      
Sep 18 13:53 E 6 10 Partly Cloudy FEW050 SCT070 82 70     67%   86 30.03 29.99      
Sep 18 11:53 SE 3 10 Light Rain FEW050 SCT080 OVC100 72 69     91%   73 30.08 30.05      
Sep 18 10:53 SSE 6 10 Mostly Cloudy SCT050 BKN060 BKN085 71 68     90%   72 30.09 30.06      
Sep 18 08:53 SSE 6 10 Cloudy OVC110 68 66     93%     30.07 30.05      
Sep 18 08:30 S 6 10 Cloudy SCT050 BKN090 OVC110 66 65     96%     30.07        
Sep 18 08:15 SSE 3 10 Thunderstorms SCT048 BKN075 OVC110 65 64     97%     30.07        
Sep 18 08:01 ESE 6 10 Cloudy SCT046 BKN070 OVC110 65 64     97%     30.06        
Sep 18 07:53 SSE 3 10 Cloudy BKN045 BKN065 OVC110 65 64     97%     30.07 30.04      
Sep 18 02:53 Calm 8 Clear CLR 63 63     100%     30.08 30.04      
Sep 18 01:53 Calm 8 Clear CLR 62 62     100%     30.08 30.04      
Sep 17 23:53 Calm 8 Clear CLR 63 63     100%     30.09 30.05      
Sep 17 22:53 SE 6 10 Clear CLR 65 65     100%     30.09 30.05      
Sep 17 20:53 Calm 10 Clear CLR 64 64     100%     30.11 30.07      
Sep 17 19:53 N 5 10 Clear CLR 65 65     100%     30.12 30.09      
Sep 17 17:53 S 8 10 Mostly Clear FEW110 68 65     90%     30.07 30.04      
Sep 17 16:53 S 8 10 Light Rain FEW050 BKN110 67 65     93%     30.1 30.07      
Sep 17 16:15 S 7 4 Rain and Fog/Mist OVC090 67 65     93%     30.11        
Sep 17 14:53 N 8 10 Cloudy BKN041 OVC090 73 61     66%   73 30.16 30.13      
Sep 17 13:53   10 Cloudy FEW024 OVC040 76 65     69%   76 30.17 30.13      
Sep 17 12:53 NNE 14 10 Cloudy SCT023 OVC034 76 66     71%   77 30.18 30.14 0   0
Sep 17 11:53 N 3 10 Cloudy SCT045 BKN060 OVC110 74 68     82%   75 30.18 30.14      
Sep 17 10:53 Calm 10 Mostly Cloudy FEW039 FEW065 BKN110 71 67     87%   72 30.17 30.14 0    
Sep 17 09:53 Calm 10 Mostly Cloudy BKN060 BKN120 70 66     87%     30.16 30.12      
Sep 17 08:53 N 10 10 Cloudy OVC110 71 67     87%   72 30.14 30.1      
Sep 17 07:53 E 3 9 Clear CLR 68 66     93%     30.09 30.05      
Sep 17 06:53 S 3 9 Clear CLR 67 65     93%     30.08 30.04      
Sep 17 05:53 SSE 5 10 Clear CLR 65 64     97%     30.06 30.02      
Sep 17 04:53 SSE 3 10 Clear CLR 64 63     96%     30.06 30.01      
Sep 17 03:53 Calm 10 Clear CLR 66 64     93%     30.06 30.01      
Sep 17 01:53 Calm 10 Clear CLR 67 64     90%     30.07 30.02      
Sep 17 00:53 Calm 10 Clear CLR 67 64     90%     30.08 30.03      
Sep 16 23:53 Calm 10 Clear CLR 67 64     90%     30.1 30.05      
Sep 16 22:53 Calm 10 Clear CLR 68 64     87%     30.09 30.05      
Sep 16 21:53 Calm 10 Clear CLR 72 64     76%   72 30.08 30.04      
Sep 16 20:53 Calm 10 Clear CLR 71 64     79%   72 30.06 30.03      
Sep 16 19:53 Calm 10 Clear CLR 78 64     62%   79 30.03 29.99      
Sep 16 18:53 S 6 10 Clear CLR 79 64     60%   79 30.02 29.99      
Sep 16 17:53 S 10 10 Clear CLR 84 61     46%   84 30.01 29.97      
Sep 16 16:53 SSE 14 10 Clear CLR 86 61     43%   86 30.01 29.96      
Sep 16 15:53 SSE 10 10 Clear CLR 87 62     43%   88 30.02 29.97      
Sep 16 14:53 S 10 10 Clear CLR 88 61     40%   88 30.03 29.99      
Sep 16 13:53 SSE 16 10 Clear CLR 86 62     45%   87 30.05 30.01      
Sep 16 12:53 SSE 11 10 Clear CLR 85 62     46%   86 30.07 30.02      
Sep 16 11:53 S 13 10 Partly Cloudy SCT035 84 64     51%   85 30.08 30.03      
Sep 16 10:53 S 14 10 Clear CLR 80 65     60%   82 30.09 30.05      
Sep 16 09:53 SSE 10 10 Clear CLR 75 65     71%   76 30.09 30.05      
Sep 16 08:53 SSE 8 7 Clear CLR 68 65     90%     30.08 30.05      
Sep 16 07:53 SSE 5 3 Fog/Mist CLR 64 63     96%     30.08 30.04      
Sep 16 06:53 Calm 4 Fog/Mist CLR 63 63     100%     30.06 30.03      
Sep 16 05:53 Calm 4 Fog/Mist CLR 61 61     100%     30.04 30      
Sep 16 05:35 Calm 3 Fog/Mist CLR 60 60     100%     30.04        
Sep 16 05:25 Calm 1.75 Fog/Mist CLR 60 60     100%     30.03        
Sep 16 04:53 Calm 7 Clear CLR 64 63     96%     30.02 29.97      
Sep 16 03:53 Calm 5 Fog/Mist CLR 63 63     100%     30.01 29.96      
Jun 12 02:53 SE 8 10 Clear CLR 71 67     87%   72 29.99 29.94      
Jun 11 14:53 S 11 10 Clear   84 66     55%   86 30.02 29.97      
Jun 11 13:53   10 Mostly Clear FEW046 83 64     53%   84 30.02 29.97      
Jun 11 04:53 S 7 10 Clear CLR 68 63     84%     29.98 29.93      
Jun 10 18:53 S 10 10 Clear CLR 78 64     62%   79 29.92 29.89      
Jun 10 13:53 SSE 11 10 Clear CLR 81 63     54%   82 29.96 29.93      
Jun 10 12:53 SSE 13 10 Clear CLR 80 61     52%   81 29.97 29.94      
Jun 09 19:53 S 6 10 Clear CLR 74 58     57%   74 29.92 29.88      
Jun 08 07:53 W 5 10 Clear CLR 59 54     83%     30.08 30.05      
Jun 07 10:53 ENE 6 10 Clear CLR 70 54     57%     30.08 30.05      
Jun 06 11:53 N 8 10 Clear CLR 81 67     62%   83 29.93 29.88